[[{"header":{"parameterUnit":"m.s-1","parameterCategory":2,"la1":30.2992,"la2":30.254,"lo1":-89.0895,"lo2":-89.0443,"dy":0.0025,"dx":0.0025,"nx":19,"ny":19,"refTime":"2026-04-26T21:00:00:Z","depth":"0","parameterNumber":2,"parameterNumberName":"U-component_of_CURRENTS"},"data":[0,0,0,-0.0288,-0.0289,-0.0353,-0.0354,-0.0457,-0.0458,0,0,0,0,0,0,0,0,0,0,0,-0.0244,-0.0244,-0.0287,-0.0289,-0.0353,-0.0354,-0.0457,-0.0458,0,0,0,0,0,0,0,0,0,0,0,-0.0244,-0.0244,-0.0244,-0.029,-0.0353,-0.0354,-0.0457,-0.0401,0,0,0,0,0,0,0,0,0,0,-0.0335,-0.032,-0.0244,-0.0244,-0.029,-0.0353,-0.0354,-0.0398,-0.0405,-0.0437,0,-0.0436,0,-0.0464,-0.0467,-0.0467,0,0,0,-0.0282,-0.0315,-0.0312,-0.0244,-0.0291,-0.0353,-0.0322,-0.0402,-0.0409,-0.0446,-0.0438,-0.0442,-0.0466,-0.0467,-0.0468,-0.06,-0.06,0,0,-0.0278,-0.028,-0.0306,-0.0316,-0.0295,-0.032,-0.0324,-0.0406,-0.0421,-0.0438,-0.0445,-0.0467,-0.0468,-0.0469,-0.0599,-0.06,0,0,0,-0.0273,-0.0278,-0.0272,-0.0311,-0.0329,-0.0322,-0.0327,-0.0417,-0.0409,-0.0446,-0.0469,-0.0469,-0.047,-0.0598,-0.0599,-0.0605,0,0,0,-0.0271,-0.0275,-0.027,-0.0276,-0.0327,-0.038,-0.0337,-0.0402,-0.0414,-0.0468,-0.0469,-0.0472,-0.0598,-0.0599,-0.0603,-0.0605,0,0,0,-0.0243,-0.0274,-0.0271,-0.0275,-0.0307,-0.0378,-0.0376,-0.0405,-0.0428,-0.0467,-0.0472,-0.0598,-0.0599,-0.0602,-0.0603,-0.0611,0,0,0,-0.0256,-0.0276,-0.0271,-0.0311,-0.0306,-0.037,-0.0375,-0.0433,-0.0467,-0.0469,-0.0598,-0.0599,-0.0601,-0.0602,-0.061,-0.0612,-0.0617,0,0,-0.029,-0.028,-0.0304,-0.0301,-0.036,-0.0361,-0.0439,-0.0478,-0.0498,-0.057,-0.0573,-0.0604,-0.0603,-0.061,-0.0685,-0.0688,0,0,0,-0.0321,-0.0334,-0.0353,-0.0386,-0.0418,-0.0456,-0.0497,-0.0517,-0.057,-0.0526,-0.0628,-0.0628,-0.0632,-0.0632,-0.0635,-0.0455,-0.0605,-0.0605,-0.0605,-0.0379,-0.0385,-0.0431,-0.0447,-0.0483,-0.0533,-0.0566,-0.0603,-0.0611,-0.0635,-0.065,-0.0685,-0.0687,-0.0689,-0.0504,-0.0672,-0.0672,-0.0672,-0.0672,-0.043,-0.045,-0.047,-0.0505,-0.0532,-0.0581,-0.0638,-0.0644,-0.0694,-0.0687,-0.0691,-0.0661,-0.0692,-0.0494,-0.0672,-0.0672,-0.0672,-0.0672,-0.0672,-0.0445,-0.0457,-0.0468,-0.0508,-0.0551,-0.0588,-0.0645,-0.067,-0.0697,-0.0716,-0.0705,-0.0705,-0.0514,-0.0707,-0.0707,-0.0707,-0.0707,-0.0707,-0.0707,-0.0449,-0.0466,-0.0471,-0.0508,-0.053,-0.0568,-0.0636,-0.0679,-0.0707,-0.0719,-0.0719,-0.051,-0.0695,-0.0674,-0.0708,-0.0708,-0.0707,-0.0707,-0.0707,-0.0483,-0.0442,-0.0459,-0.047,-0.0527,-0.0546,-0.0627,-0.0704,-0.0743,-0.0758,-0.0513,-0.0725,-0.0722,-0.072,-0.0701,-0.0739,-0.0739,-0.0739,-0.0739,-0.0474,-0.0466,-0.0447,-0.0462,-0.0514,-0.054,-0.0586,-0.0642,-0.0575,-0.047,-0.0423,-0.0384,-0.039,-0.0364,-0.037,-0.0342,-0.0289,-0.0288,-0.0287,-0.0492,-0.0469,-0.0451,-0.044,-0.05,-0.0526,-0.05,-0.0393,-0.0275,-0.0247,-0.0167,-0.0186,-0.0107,-0.0133,-0.0077,-0.01,-0.0051,0,0]},{"header":{"parameterUnit":"m.s-1","parameterCategory":2,"la1":30.2992,"la2":30.254,"lo1":-89.0895,"lo2":-89.0443,"dy":0.0025,"dx":0.0025,"nx":19,"ny":19,"refTime":"2026-04-26T21:00:00:Z","depth":"0","parameterNumber":3,"parameterNumberName":"V-component_of_CURRENTS"},"data":[0,0,0,0.0735,0.0733,0.0751,0.0752,0.0849,0.0849,0,0,0,0,0,0,0,0,0,0,0,0.073,0.0729,0.0735,0.0733,0.0751,0.0752,0.0849,0.0849,0,0,0,0,0,0,0,0,0,0,0,0.0731,0.073,0.0728,0.0733,0.0751,0.0752,0.0849,0.083,0,0,0,0,0,0,0,0,0,0,0.0809,0.0784,0.073,0.0728,0.0732,0.0751,0.0752,0.0829,0.0831,0.0844,0,0.0804,0,0.0803,0.0852,0.0853,0,0,0,0.0789,0.0782,0.0764,0.0728,0.0732,0.0751,0.0759,0.083,0.0833,0.0847,0.0805,0.0808,0.0804,0.0853,0.0853,0.0791,0.079,0,0,0.0788,0.077,0.0762,0.0764,0.068,0.0758,0.0759,0.0832,0.0825,0.0805,0.081,0.0806,0.0853,0.0853,0.0792,0.0791,0,0,0,0.0748,0.0769,0.075,0.0761,0.0743,0.0757,0.0758,0.0823,0.0808,0.0811,0.0807,0.0853,0.0854,0.0793,0.0792,0.0696,0,0,0,0.075,0.0741,0.0749,0.0744,0.0739,0.0774,0.0748,0.0804,0.0811,0.0806,0.0853,0.0854,0.0794,0.0792,0.0701,0.0682,0,0,0,0.074,0.0741,0.0721,0.0742,0.0721,0.0772,0.0765,0.0807,0.0807,0.0853,0.0854,0.0795,0.0793,0.0705,0.0689,0.0624,0,0,0,0.0756,0.0704,0.0719,0.0662,0.072,0.0692,0.0765,0.0771,0.08,0.0853,0.0794,0.0792,0.0706,0.0693,0.0628,0.0584,0.056,0,0,0.0705,0.0698,0.0665,0.0678,0.0626,0.0697,0.0663,0.0731,0.0769,0.0788,0.0787,0.0699,0.0689,0.0625,0.0445,0.0426,0,0,0,0.0659,0.0633,0.062,0.0588,0.058,0.0587,0.0644,0.0653,0.0665,0.0762,0.0677,0.0674,0.0636,0.0618,0.0601,0.0712,0.0781,0.0781,0.0781,0.0574,0.0573,0.052,0.0513,0.0496,0.0514,0.0515,0.0534,0.0587,0.0555,0.0578,0.0443,0.042,0.0408,0.0521,0.0546,0.0545,0.0545,0.0545,0.0482,0.0444,0.0445,0.0401,0.0399,0.0378,0.0383,0.0408,0.0393,0.0456,0.0424,0.0496,0.0384,0.0512,0.0538,0.0539,0.054,0.0541,0.0541,0.0426,0.0408,0.039,0.0329,0.0289,0.0291,0.0238,0.0277,0.0301,0.0282,0.0276,0.0278,0.0408,0.0263,0.0263,0.0263,0.0262,0.0262,0.0262,0.0366,0.0352,0.0309,0.0261,0.0214,0.017,0.0163,0.0145,0.0147,0.0177,0.0176,0.0363,0.0358,0.039,0.0255,0.0257,0.0257,0.0258,0.0258,0.0299,0.0318,0.0232,0.0188,0.0091,0.003,0.0028,-0.0012,-0.0015,-0.0031,0.0178,0.0113,0.0146,0.016,0.0186,0.0008,0.0008,0.0008,0.0008,0.0269,0.0269,0.0158,0.0073,-0.0018,-0.004,-0.01,-0.0068,0.0027,0.0097,0.0139,0.0205,0.0211,0.0254,0.0266,0.0298,0.0151,0.0152,0.0152,0.0233,0.0196,0.0111,0.0035,-0.0075,-0.011,-0.0136,0.0048,0.0192,0.0174,0.0298,0.0292,0.0411,0.0411,0.0501,0.0509,0.057,0,0]}],[{"header":{"parameterUnit":"m.s-1","parameterCategory":2,"la1":30.2992,"la2":30.254,"lo1":-89.0895,"lo2":-89.0443,"dy":0.0025,"dx":0.0025,"nx":19,"ny":19,"refTime":"2026-04-26T21:00:00:Z","depth":"2","parameterNumber":2,"parameterNumberName":"U-component_of_CURRENTS"},"data":[0,0,0,-0.1352,-0.1352,-0.1366,-0.1366,-0.1407,-0.1407,0,0,0,0,0,0,0,0,0,0,0,-0.1335,-0.1335,-0.1352,-0.1352,-0.1366,-0.1366,-0.1407,-0.1407,0,0,0,0,0,0,0,0,0,0,0,-0.1335,-0.1335,-0.1335,-0.1353,-0.1366,-0.1366,-0.1406,-0.1389,0,0,0,0,0,0,0,0,0,0,-0.1373,-0.1339,-0.1335,-0.1335,-0.1353,-0.1366,-0.1366,-0.1388,-0.1391,-0.1409,0,-0.1404,0,-0.1415,-0.1411,-0.1411,0,0,0,-0.1348,-0.1337,-0.1361,-0.1335,-0.1353,-0.1366,-0.1358,-0.1389,-0.1392,-0.1412,-0.1405,-0.1406,-0.1416,-0.1411,-0.1412,-0.1458,-0.1458,0,0,-0.1347,-0.1322,-0.1359,-0.1362,-0.1348,-0.1358,-0.1359,-0.1391,-0.1379,-0.1405,-0.1408,-0.1416,-0.1412,-0.1412,-0.1458,-0.1458,0,0,0,-0.1348,-0.1321,-0.1342,-0.136,-0.1365,-0.1358,-0.1359,-0.1377,-0.1389,-0.1408,-0.1417,-0.1412,-0.1413,-0.1457,-0.1458,-0.1429,0,0,0,-0.1348,-0.1323,-0.1342,-0.1324,-0.1364,-0.1364,-0.1345,-0.1386,-0.1391,-0.1417,-0.1412,-0.1413,-0.1457,-0.1458,-0.143,-0.1398,0,0,0,-0.1336,-0.1321,-0.1324,-0.1323,-0.1335,-0.1364,-0.1377,-0.1387,-0.1397,-0.1411,-0.1413,-0.1457,-0.1458,-0.143,-0.14,-0.1301,0,0,0,-0.1308,-0.1305,-0.1323,-0.1329,-0.1335,-0.1383,-0.1377,-0.1399,-0.1412,-0.1412,-0.1457,-0.1458,-0.143,-0.1401,-0.1303,-0.1248,-0.1232,0,0,-0.1296,-0.1302,-0.1313,-0.1331,-0.1375,-0.1381,-0.1402,-0.1409,-0.1421,-0.1448,-0.1449,-0.1429,-0.14,-0.1301,-0.1261,-0.1244,0,0,0,-0.1306,-0.1315,-0.1334,-0.1357,-0.1396,-0.1399,-0.142,-0.1416,-0.1417,-0.143,-0.1442,-0.1424,-0.1362,-0.1335,-0.1322,-0.1459,-0.1459,-0.1459,-0.1459,-0.1263,-0.1303,-0.1325,-0.1373,-0.1393,-0.1415,-0.1402,-0.1398,-0.1432,-0.142,-0.1411,-0.133,-0.1306,-0.1294,-0.1433,-0.1433,-0.1433,-0.1433,-0.1433,-0.1272,-0.129,-0.1318,-0.1353,-0.1365,-0.1378,-0.1377,-0.1375,-0.1332,-0.1389,-0.1329,-0.1321,-0.1278,-0.1431,-0.1431,-0.1431,-0.1431,-0.1432,-0.1432,-0.1261,-0.127,-0.1288,-0.1318,-0.1317,-0.1341,-0.13,-0.1307,-0.1284,-0.1248,-0.1177,-0.1177,-0.1265,-0.1209,-0.1208,-0.1208,-0.1207,-0.1207,-0.1206,-0.1233,-0.1254,-0.126,-0.1287,-0.1285,-0.1278,-0.1251,-0.1201,-0.1127,-0.112,-0.1119,-0.1253,-0.126,-0.125,-0.1198,-0.1199,-0.12,-0.1201,-0.1202,-0.1235,-0.1224,-0.124,-0.1239,-0.1243,-0.1207,-0.119,-0.1067,-0.0983,-0.092,-0.1024,-0.1031,-0.1015,-0.1026,-0.1011,-0.0898,-0.0898,-0.0898,-0.0898,-0.1215,-0.122,-0.1218,-0.1215,-0.1207,-0.1177,-0.1057,-0.0947,-0.087,-0.0824,-0.0828,-0.0899,-0.0912,-0.0895,-0.091,-0.0894,-0.0751,-0.0751,-0.0751,-0.1213,-0.1209,-0.1201,-0.1202,-0.1196,-0.1132,-0.1001,-0.0892,-0.0785,-0.0748,-0.0836,-0.0882,-0.1001,-0.1016,-0.1006,-0.1023,-0.1004,0,0]},{"header":{"parameterUnit":"m.s-1","parameterCategory":2,"la1":30.2992,"la2":30.254,"lo1":-89.0895,"lo2":-89.0443,"dy":0.0025,"dx":0.0025,"nx":19,"ny":19,"refTime":"2026-04-26T21:00:00:Z","depth":"2","parameterNumber":3,"parameterNumberName":"V-component_of_CURRENTS"},"data":[0,0,0,-0.0611,-0.0611,-0.0597,-0.0597,-0.0509,-0.0508,0,0,0,0,0,0,0,0,0,0,0,-0.0612,-0.0612,-0.0611,-0.0611,-0.0597,-0.0597,-0.0509,-0.0508,0,0,0,0,0,0,0,0,0,0,0,-0.0612,-0.0612,-0.0612,-0.0611,-0.0597,-0.0597,-0.051,-0.0535,0,0,0,0,0,0,0,0,0,0,-0.0557,-0.058,-0.0612,-0.0612,-0.0611,-0.0597,-0.0597,-0.0537,-0.0534,-0.0498,0,-0.0501,0,-0.0506,-0.0502,-0.0501,0,0,0,-0.0602,-0.0583,-0.0572,-0.0612,-0.0611,-0.0597,-0.0601,-0.0536,-0.0532,-0.0493,-0.05,-0.0497,-0.0504,-0.0501,-0.0501,-0.0407,-0.0406,0,0,-0.0603,-0.0613,-0.0575,-0.057,-0.0611,-0.0601,-0.06,-0.0534,-0.0534,-0.05,-0.0495,-0.0503,-0.05,-0.05,-0.0407,-0.0407,0,0,0,-0.0611,-0.0613,-0.0605,-0.0573,-0.0578,-0.0601,-0.06,-0.0537,-0.0533,-0.0495,-0.0502,-0.05,-0.0499,-0.0407,-0.0407,-0.0463,0,0,0,-0.0611,-0.0618,-0.0606,-0.0612,-0.058,-0.0569,-0.0604,-0.0537,-0.053,-0.0502,-0.05,-0.0498,-0.0408,-0.0407,-0.0463,-0.0459,0,0,0,-0.0612,-0.0619,-0.0617,-0.0612,-0.061,-0.0571,-0.0563,-0.0536,-0.0534,-0.0501,-0.0497,-0.0408,-0.0407,-0.0462,-0.0458,-0.0377,0,0,0,-0.0621,-0.0633,-0.0617,-0.0635,-0.061,-0.0606,-0.0564,-0.0556,-0.0534,-0.0499,-0.0407,-0.0407,-0.0462,-0.0457,-0.0378,-0.032,-0.0311,0,0,-0.0642,-0.0636,-0.0646,-0.0632,-0.0637,-0.0607,-0.0594,-0.0548,-0.0505,-0.0423,-0.0422,-0.0463,-0.0458,-0.0377,-0.0281,-0.0274,0,0,0,-0.0657,-0.0663,-0.0662,-0.0662,-0.0649,-0.0615,-0.0582,-0.0545,-0.0484,-0.049,-0.0433,-0.0427,-0.0374,-0.0341,-0.0334,-0.0404,-0.0404,-0.0404,-0.0404,-0.0712,-0.0697,-0.0701,-0.0676,-0.0664,-0.0618,-0.0578,-0.0511,-0.0495,-0.0469,-0.0453,-0.04,-0.0368,-0.0361,-0.0443,-0.0443,-0.0443,-0.0444,-0.0444,-0.0743,-0.0746,-0.0712,-0.071,-0.0665,-0.0648,-0.0557,-0.0533,-0.0437,-0.0453,-0.0399,-0.0378,-0.0357,-0.0448,-0.0447,-0.0446,-0.0446,-0.0446,-0.0445,-0.078,-0.0772,-0.0764,-0.0741,-0.0709,-0.0663,-0.0569,-0.0528,-0.0458,-0.0427,-0.0323,-0.0322,-0.0403,-0.0394,-0.0393,-0.0393,-0.0393,-0.0392,-0.0392,-0.0822,-0.0802,-0.0802,-0.0772,-0.0756,-0.0698,-0.0578,-0.0477,-0.0363,-0.0338,-0.0336,-0.038,-0.0382,-0.0395,-0.0387,-0.0388,-0.0388,-0.0389,-0.0389,-0.0863,-0.0854,-0.0851,-0.0837,-0.0765,-0.0678,-0.0554,-0.034,-0.0231,-0.0155,-0.0253,-0.0258,-0.0209,-0.0213,-0.022,-0.0166,-0.0166,-0.0166,-0.0166,-0.0897,-0.089,-0.0884,-0.0852,-0.0766,-0.0664,-0.0461,-0.0268,-0.0141,-0.0091,-0.0094,-0.0134,-0.0144,-0.0093,-0.01,-0.0105,-0.0021,-0.0021,-0.0021,-0.092,-0.0916,-0.0916,-0.0875,-0.0773,-0.0624,-0.0465,-0.0161,0.0109,-0.0018,-0.0097,-0.0151,-0.0221,-0.0232,-0.0164,-0.0172,-0.0184,0,0]}],[{"header":{"parameterUnit":"m.s-1","parameterCategory":2,"la1":30.2992,"la2":30.254,"lo1":-89.0895,"lo2":-89.0443,"dy":0.0025,"dx":0.0025,"nx":19,"ny":19,"refTime":"2026-04-26T21:00:00:Z","depth":"4","parameterNumber":2,"parameterNumberName":"U-component_of_CURRENTS"},"data":[0,0,0,-0.0629,-0.0631,-0.0703,-0.0703,-0.082,-0.0821,0,0,0,0,0,0,0,0,0,0,0,-0.0598,-0.0599,-0.0629,-0.0631,-0.0703,-0.0703,-0.082,-0.0821,0,0,0,0,0,0,0,0,0,0,0,-0.0598,-0.0599,-0.0599,-0.0631,-0.0703,-0.0703,-0.0819,-0.0757,0,0,0,0,0,0,0,0,0,0,-0.0683,-0.0651,-0.0598,-0.0599,-0.0632,-0.0703,-0.0703,-0.0753,-0.0761,-0.0798,0,-0.0813,0,-0.0829,-0.083,-0.0831,0,0,0,-0.0621,-0.0645,-0.0671,-0.06,-0.0633,-0.0703,-0.0668,-0.0757,-0.0765,-0.0808,-0.0815,-0.0819,-0.0831,-0.0831,-0.0832,-0.0912,-0.0911,0,0,-0.0617,-0.0606,-0.0665,-0.0677,-0.0659,-0.0665,-0.067,-0.0762,-0.0771,-0.0815,-0.0822,-0.0833,-0.0832,-0.0833,-0.0912,-0.0912,0,0,0,-0.0613,-0.0603,-0.0626,-0.0672,-0.0688,-0.0668,-0.0673,-0.0766,-0.0776,-0.0824,-0.0834,-0.0833,-0.0835,-0.0912,-0.0912,-0.089,0,0,0,-0.061,-0.0601,-0.0624,-0.0617,-0.0686,-0.0725,-0.0675,-0.0769,-0.078,-0.0834,-0.0833,-0.0836,-0.0912,-0.0912,-0.0891,-0.0851,0,0,0,-0.0594,-0.06,-0.0611,-0.0617,-0.0654,-0.0723,-0.0737,-0.0771,-0.0788,-0.0831,-0.0837,-0.0912,-0.0912,-0.0892,-0.0854,-0.0851,0,0,0,-0.0574,-0.059,-0.0611,-0.0628,-0.0653,-0.0688,-0.0737,-0.0779,-0.0814,-0.0834,-0.0912,-0.0912,-0.0892,-0.0855,-0.0853,-0.0802,0,0,0,-0.0581,-0.0591,-0.0599,-0.0619,-0.0642,-0.0677,-0.0693,-0.0767,-0.0819,-0.0883,-0.0885,-0.0891,-0.0854,-0.0852,-0.0779,0,0,0,0,-0.0591,-0.0594,-0.0604,-0.0625,-0.0658,-0.0672,-0.0733,-0.076,-0.0826,-0.084,-0.0889,-0.0865,-0.0865,-0.084,-0.091,-0.091,-0.091,-0.091,-0.091,-0.056,-0.058,-0.0591,-0.0614,-0.064,-0.0678,-0.0691,-0.074,-0.0806,-0.0827,-0.0848,-0.0825,-0.0797,-0.0864,-0.0863,-0.0863,-0.0863,-0.0863,-0.0863,-0.0542,-0.0549,-0.0576,-0.0596,-0.062,-0.0652,-0.0681,-0.0714,-0.0757,-0.0805,-0.0808,-0.0817,-0.0861,-0.0861,-0.0862,-0.0862,-0.0862,-0.0862,-0.0862,-0.0513,-0.0524,-0.054,-0.0569,-0.0606,-0.064,-0.0663,-0.069,-0.0731,-0.0734,-0.0745,-0.0803,-0.0806,-0.0769,-0.0769,-0.0769,-0.0769,-0.0769,-0.0769,-0.0481,-0.0501,-0.0501,-0.0542,-0.0571,-0.061,-0.0657,-0.0669,-0.0701,-0.0687,-0.0744,-0.0793,-0.0796,-0.08,-0.0766,-0.0766,-0.0767,-0.0767,-0.0767,-0.0449,-0.046,-0.0458,-0.0468,-0.0518,-0.0557,-0.0607,-0.0622,-0.0628,-0.0608,-0.0666,-0.0672,-0.0671,-0.0677,-0.0678,-0.0606,-0.0605,-0.0604,0,-0.0419,-0.0426,-0.0404,-0.0402,-0.0432,-0.0503,-0.0522,-0.0554,-0.0566,-0.0553,-0.0617,-0.0682,-0.0686,-0.0687,-0.0691,-0.0691,0,0,0,-0.0386,-0.0389,-0.0353,-0.0358,-0.0387,-0.0459,-0.0529,-0.0521,-0.057,-0.0552,-0.0584,-0.0589,-0.0709,-0.0757,-0.077,-0.0774,-0.0781,0,0]},{"header":{"parameterUnit":"m.s-1","parameterCategory":2,"la1":30.2992,"la2":30.254,"lo1":-89.0895,"lo2":-89.0443,"dy":0.0025,"dx":0.0025,"nx":19,"ny":19,"refTime":"2026-04-26T21:00:00:Z","depth":"4","parameterNumber":3,"parameterNumberName":"V-component_of_CURRENTS"},"data":[0,0,0,-0.0233,-0.0234,-0.0264,-0.0264,-0.0363,-0.0363,0,0,0,0,0,0,0,0,0,0,0,-0.0229,-0.0229,-0.0233,-0.0234,-0.0264,-0.0264,-0.0362,-0.0363,0,0,0,0,0,0,0,0,0,0,0,-0.0229,-0.0229,-0.0229,-0.0234,-0.0264,-0.0264,-0.0362,-0.0328,0,0,0,0,0,0,0,0,0,0,-0.0292,-0.0275,-0.0229,-0.0229,-0.0234,-0.0264,-0.0264,-0.0325,-0.033,-0.0362,0,-0.0361,0,-0.0358,-0.037,-0.0371,0,0,0,-0.0246,-0.0271,-0.0276,-0.0229,-0.0234,-0.0264,-0.0254,-0.0327,-0.0332,-0.0368,-0.0362,-0.0365,-0.036,-0.0371,-0.0371,-0.048,-0.0481,0,0,-0.0245,-0.0241,-0.0272,-0.0278,-0.0236,-0.0253,-0.0255,-0.033,-0.0336,-0.0363,-0.0367,-0.0361,-0.0372,-0.0372,-0.048,-0.0481,0,0,0,-0.0231,-0.024,-0.0242,-0.0275,-0.0272,-0.0253,-0.0255,-0.0333,-0.0333,-0.0368,-0.0363,-0.0372,-0.0373,-0.048,-0.048,-0.0496,0,0,0,-0.0231,-0.0231,-0.0241,-0.0241,-0.027,-0.0294,-0.0257,-0.0328,-0.0336,-0.0362,-0.0372,-0.0374,-0.0479,-0.048,-0.0495,-0.0489,0,0,0,-0.0228,-0.0231,-0.0232,-0.024,-0.0246,-0.0293,-0.0297,-0.0329,-0.0332,-0.0371,-0.0375,-0.0479,-0.048,-0.0493,-0.0487,-0.0454,0,0,0,-0.0228,-0.024,-0.0232,-0.0251,-0.0246,-0.0294,-0.0296,-0.0341,-0.0377,-0.0373,-0.0479,-0.048,-0.0493,-0.0486,-0.0454,-0.0368,0,0,0,-0.0245,-0.0242,-0.0256,-0.0249,-0.0295,-0.0291,-0.0349,-0.0391,-0.0403,-0.046,-0.0462,-0.0495,-0.0487,-0.0454,-0.0431,0,0,0,0,-0.0263,-0.0272,-0.0286,-0.0308,-0.0335,-0.0367,-0.04,-0.0413,-0.046,-0.0425,-0.0512,-0.0506,-0.0484,-0.0435,-0.0485,-0.0485,-0.0485,-0.0485,-0.0485,-0.0287,-0.0303,-0.0338,-0.0364,-0.0394,-0.0433,-0.0457,-0.0482,-0.0497,-0.0517,-0.0532,-0.0536,-0.0489,-0.0554,-0.0554,-0.0554,-0.0554,-0.0555,-0.0555,-0.032,-0.0347,-0.0371,-0.0409,-0.0445,-0.0493,-0.0523,-0.0528,-0.0546,-0.0559,-0.0537,-0.0474,-0.0557,-0.0556,-0.0556,-0.0556,-0.0555,-0.0555,-0.0555,-0.0344,-0.0361,-0.0377,-0.0432,-0.0485,-0.0523,-0.0537,-0.0556,-0.0552,-0.0552,-0.0469,-0.0531,-0.0512,-0.0533,-0.0533,-0.0532,-0.0532,-0.0532,-0.0532,-0.0362,-0.0381,-0.0415,-0.046,-0.0498,-0.0528,-0.0542,-0.052,-0.0513,-0.0467,-0.0544,-0.0527,-0.0528,-0.051,-0.053,-0.053,-0.0531,-0.0531,-0.0531,-0.0396,-0.0398,-0.0444,-0.0475,-0.0534,-0.0539,-0.0535,-0.044,-0.0402,-0.0348,-0.041,-0.0416,-0.0389,-0.0393,-0.0369,-0.0347,-0.0346,-0.0345,0,-0.0416,-0.0422,-0.0474,-0.0517,-0.0544,-0.055,-0.0451,-0.0403,-0.0366,-0.0365,-0.0442,-0.052,-0.0521,-0.0501,-0.0501,-0.0479,0,0,0,-0.0436,-0.0448,-0.0487,-0.0528,-0.0557,-0.0471,-0.0425,-0.0379,-0.0369,-0.0269,-0.0318,-0.0325,-0.0454,-0.0523,-0.0496,-0.0497,-0.0466,0,0]}]]